Tracking 19792 objects as of 16-Jul-2019
HD Live streaming from Space Station
objects crossing your sky now

FENGYUN 1C DEB

Track FENGYUN 1C DEB now!
10-day predictions


NORAD ID: 33748
Int'l Code: 1999-025DJM
Perigee: 798.2 km
Apogee: 859.5 km
Inclination: 98.8 °
Period: 101.3 minutes
Semi major axis: 7199 km
RCS: 0.0021 m2 (small)
Launch date: May 10, 1999
Source: People's Republic of China (PRC)
Launch site: Taiyaun Space Center, China (TSC)

Note: This is SATELLITE DEBRIS
aabbcc
Your satellite tracking list
Your tracking list is empty




NASA's NSSDC Master Catalog

Two Line Element Set (TLE):
1 33748U 99025DJM 19196.92130062 +.00000386 +00000-0 +19676-3 0  9998
2 33748 098.8052 240.8657 0042572 195.7128 164.2731 14.21065175580553
Source of the keplerian elements: AFSPC